Mountain Home, AR

10:16 AM CST on December 13, 2019 (GMT -0600)
Baxter County Regional

Weather History for KBPK - November, 2019

Change the Weather History Date:

Saturday, November 16, 2019

  Actual Average (WUND) Record (WUND)
Temperature  
Mean Temperature 40 °F -  
Max Temperature 53 °F - - (-1)
Min Temperature 27 °F - - (-1)
Degree Days  
Heating Degree Days 25    
Moisture  
Dew Point 27 °F    
Average Humidity 59    
Maximum Humidity 81    
Minimum Humidity 41    
Precipitation  
Precipitation 0.00 in - - ()
Sea Level Pressure  
Sea Level Pressure 30.23 in    
Wind  
Wind Speed 2 mph (SSE)    
Max Wind Speed 7 mph    
Max Gust Speed -    
Visibility 10 miles    
Events      
Averages and records for this station are not official NWS values.
T = Trace of Precipitation, MM = Missing Value Source: NWS Daily Summary

Daily Weather History Graph

Daily Weather History Graph

Search for Another Location

Airport or City:

Astronomy

Nov. 16, 2019 Rise Set
Actual Time 6:47 AM CST 5:00 PM CST
Civil Twilight 6:20 AM CST 5:28 PM CST
Nautical Twilight 5:49 AM CST 5:59 PM CST
Astronomical Twilight 5:18 AM CST 6:30 PM CST
Moon 8:37 PM CST (11/16) 10:39 AM CST (11/16)
Length of Visible Light 11h 07m
Length of Day
10h 13m
Waning Gibbous, 82% of the Moon is Illuminated
Nov 16
Waning Gibbous
Nov 19
Last Quarter
Nov 26
New
Dec 4
First Quarter
Dec 11
Full

Hourly Weather History & Observations

Time (CST) Temp. Windchill Dew Point Humidity Pressure Visibility Wind Dir Wind Speed Gust Speed Precip Events Conditions
12:53 AM 33.1 °F - 24.1 °F 70% 30.32 in 10.0 mi Calm Calm - N/A   Clear
1:53 AM 33.1 °F - 21.9 °F 64% 30.32 in 10.0 mi Calm Calm - N/A   Clear
3:53 AM 30.9 °F - 21.0 °F 67% 30.32 in 10.0 mi Calm Calm - N/A   Clear
5:53 AM 27.0 °F - 21.0 °F 78% 30.32 in 10.0 mi Calm Calm - N/A   Clear
6:53 AM 27.0 °F 23.0 °F 21.9 °F 81% 30.33 in 10.0 mi SE 3.5 mph - N/A   Clear
7:53 AM 32.0 °F - 24.1 °F 73% 30.32 in 10.0 mi Calm Calm - N/A   Clear
8:53 AM 37.9 °F 34.4 °F 28.9 °F 70% 30.32 in 10.0 mi SSE 4.6 mph - N/A   Clear
9:53 AM 41.0 °F 38.0 °F 28.0 °F 60% 30.32 in 10.0 mi Variable 4.6 mph - N/A   Clear
10:53 AM 45.0 °F - 26.1 °F 48% 30.31 in 10.0 mi Calm Calm - N/A   Clear
11:53 AM 48.0 °F - 28.0 °F 46% 30.27 in 10.0 mi Variable 3.5 mph - N/A   Clear
1:53 PM 53.1 °F - 30.0 °F 41% 30.20 in 10.0 mi South 4.6 mph - N/A   Clear
2:53 PM 53.1 °F - 30.0 °F 41% 30.18 in 10.0 mi SSE 6.9 mph - N/A   Clear
3:53 PM 53.1 °F - 30.0 °F 41% 30.16 in 10.0 mi South 4.6 mph - N/A   Clear
4:53 PM 50.0 °F - 30.0 °F 46% 30.14 in 10.0 mi Calm Calm - N/A   Clear
5:53 PM 46.0 °F 44.8 °F 30.0 °F 54% 30.14 in 10.0 mi SE 3.5 mph - N/A   Clear
6:53 PM 45.0 °F 43.5 °F 30.0 °F 56% 30.15 in 10.0 mi SSE 3.5 mph - N/A   Clear
7:53 PM 46.0 °F 44.8 °F 30.0 °F 54% 30.14 in 10.0 mi SSE 3.5 mph - N/A   Clear
8:53 PM 44.1 °F 42.5 °F 30.0 °F 58% 30.13 in 10.0 mi SSE 3.5 mph - N/A   Clear
9:53 PM 43.0 °F 41.3 °F 30.0 °F 60% 30.12 in 10.0 mi South 3.5 mph - N/A   Clear
10:53 PM 41.0 °F 38.0 °F 30.9 °F 67% 30.14 in 10.0 mi SSE 4.6 mph - N/A   Clear
11:53 PM 41.0 °F 38.0 °F 30.9 °F 67% 30.13 in 10.0 mi South 4.6 mph - N/A   Clear